Location: Unspecified
(33.6682°S, 0.0000°E)
Time: 09:35:52
(UTC+00:00)

Vanguard 2 Rocket - Pass Details

Date: 27 June 2019
Orbit: 554 x 3326 km, 32.9° (Epoch: 19 July)

Event Time Altitude Azimuth Distance (km) Brightness Sun altitude
Rises 10:44:20 0° 266° (W) 6,494 11.0 30.0°
Reaches altitude 10° 10:49:15 10° 266° (W) 5,084 10.6 30.4°
Maximum altitude 11:02:37 83° 350° (N) 1,552 8.7 31.2°
Drops below altitude 10° 11:09:50 10° 77° (ENE) 2,884 9.9 31.6°
Sets 11:11:55 0° 78° (ENE) 3,600 10.3 31.7°
